Location: Newark
(7.0858°N, 171.3717°E)
Time: 04:45:41
(UTC+00:00)

Vanguard 2 - Pass Details

Date: 01 December 2020
Orbit: 553 x 2937 km, 32.9° (Epoch: 26 January)

Event Time Altitude Azimuth Distance (km) Brightness Sun altitude
Rises 03:08:45 0° 332° (NNW) 2,740 10.3 40.2°
Reaches altitude 10° 03:11:36 10° 356° (N) 1,957 9.5 39.7°
Maximum altitude 03:14:20 16° 35° (NE) 1,764 9.1 39.1°
Drops below altitude 10° 03:17:33 10° 73° (ENE) 2,393 9.7 38.5°
Sets 03:21:38 0° 93° (E) 3,738 10.7 37.7°
